Change the Weather History Date:

Monday, November 25, 2013

  Actual Average Record
Temperature  
Mean Temperature 21 °F -  
Max Temperature 31 °F 33 °F 55 °F (1990)
Min Temperature 11 °F 8 °F -18 °F (2010)
Degree Days  
Heating Degree Days 44 44  
Month to date heating degree days 983 988  
Since 1 July heating degree days 3018 3177  
Cooling Degree Days 0 0  
Month to date cooling degree days 0 0  
Year to date cooling degree days 0 0  
Moisture  
Dew Point 14 °F    
Average Humidity 73    
Maximum Humidity 88    
Minimum Humidity 57    
Precipitation  
Precipitation T in 0.02 in 0.34 in (1988)
Month to date precipitation 1.07 0.65  
Year to date precipitation 16.94 11.59  
Sea Level Pressure  
Sea Level Pressure 30.10 in    
Wind  
Wind Speed 9 mph (North)    
Max Wind Speed 18 mph    
Max Gust Speed 23 mph    
Visibility 10 miles    
Events      
T = Trace of Precipitation, MM = Missing Value Source: NWS Daily Summary

Daily Weather History Graph

Daily Weather History Graph

Search for Another Location

Airport or City:

Trip Planner

Search our weather history database for the weather conditions in past years. The results will help you decide how hot, cold, wet, or windy it might be!

Date:

Astronomy

Nov. 25, 2013 Rise Set
Actual Time 6:59 AM MST 4:44 PM MST
Civil Twilight 6:30 AM MST 5:13 PM MST
Nautical Twilight 5:57 AM MST 5:46 PM MST
Astronomical Twilight 5:25 AM MST 6:18 PM MST
Moon No Moon Rise 12:19 PM MST (11/25)
Length of Visible Light 10h 43m
Length of Day
9h 44m
Waning Gibbous, 50% of the Moon is Illuminated
Nov 25
Waning Gibbous
Nov 25
Last Quarter
Dec 2
New
Dec 9
First Quarter
Dec 17
Full

Hourly Weather History & Observations

Time (MST) Temp. Windchill Dew Point Humidity Pressure Visibility Wind Dir Wind Speed Gust Speed Precip Events Conditions
12:48 AM 21.2 °F 8.3 °F 17.6 °F 86% 30.01 in 8.0 mi North 13.8 mph - N/A   Overcast
12:53 AM 21.9 °F 9.8 °F 18.0 °F 85% 29.90 in 9.0 mi North 12.7 mph - N/A   Overcast
1:53 AM 21.9 °F 7.3 °F 16.0 °F 78% 29.92 in 10.0 mi North 18.4 mph - N/A   Overcast
2:53 AM 19.0 °F 9.0 °F 14.0 °F 81% 29.96 in 10.0 mi North 8.1 mph - N/A   Clear
3:53 AM 17.1 °F 5.0 °F 10.9 °F 77% 29.99 in 10.0 mi North 10.4 mph - N/A   Clear
4:53 AM 12.9 °F 1.6 °F 9.0 °F 84% 30.04 in 10.0 mi NNE 8.1 mph - N/A   Clear
5:53 AM 12.9 °F 3.8 °F 7.0 °F 77% 30.05 in 10.0 mi North 5.8 mph - N/A   Clear
6:53 AM 12.9 °F 5.2 °F 8.1 °F 81% 30.08 in 10.0 mi North 4.6 mph - N/A   Overcast
7:53 AM 18.0 °F 6.9 °F 12.0 °F 78% 30.07 in 10.0 mi NNE 9.2 mph - N/A   Overcast
8:53 AM 23.0 °F 13.9 °F 15.1 °F 72% 30.06 in 10.0 mi North 8.1 mph - N/A   Overcast
9:53 AM 27.0 °F 16.7 °F 17.1 °F 66% 30.06 in 10.0 mi NNW 11.5 mph - N/A   Overcast
10:53 AM 28.0 °F 17.0 °F 16.0 °F 61% 30.08 in 10.0 mi NNW 13.8 mph - N/A   Overcast
11:53 AM 28.9 °F 21.1 °F 17.1 °F 61% 30.07 in 10.0 mi NNW 8.1 mph - N/A   Overcast
12:53 PM 28.9 °F 19.2 °F 16.0 °F 58% 30.06 in 10.0 mi NNE 11.5 mph - 0.00 in   Overcast
1:53 PM 30.9 °F 22.8 °F 17.1 °F 57% 30.05 in 10.0 mi North 9.2 mph - N/A   Overcast
2:53 PM 28.0 °F 16.5 °F 15.1 °F 58% 30.11 in 10.0 mi North 15.0 mph - N/A   Mostly Cloudy
3:53 PM 26.1 °F 14.5 °F 14.0 °F 60% 30.16 in 10.0 mi North 13.8 mph - N/A   Mostly Cloudy
4:53 PM 24.1 °F 15.2 °F 12.9 °F 62% 30.22 in 10.0 mi NNW 8.1 mph - N/A   Mostly Cloudy
5:53 PM 23.0 °F 13.9 °F 14.0 °F 68% 30.25 in 10.0 mi North 8.1 mph - N/A   Overcast
6:53 PM 23.0 °F 12.4 °F 16.0 °F 74% 30.26 in 10.0 mi North 10.4 mph - N/A   Overcast
7:53 PM 23.0 °F 17.0 °F 16.0 °F 74% 30.24 in 10.0 mi NNW 4.6 mph - N/A   Overcast
8:53 PM 21.9 °F 15.7 °F 16.0 °F 78% 30.22 in 10.0 mi NNW 4.6 mph - N/A   Overcast
9:53 PM 21.9 °F 15.7 °F 16.0 °F 78% 30.20 in 10.0 mi NNW 4.6 mph - N/A   Overcast
10:53 PM 21.9 °F 17.2 °F 15.1 °F 75% 30.22 in 10.0 mi NNW 3.5 mph - N/A   Overcast
11:53 PM 19.0 °F 13.9 °F 14.0 °F 81% 30.23 in 10.0 mi NW 3.5 mph - N/A   Clear